Weather History For Prescott AZ
This page updates 5 minutes after midnight. GMT -7
Station: KPRC0 Rows: 26
| Year | Date | Temp (°F) | Tmin (°F) | Tmax (°F) | RH% | Prcp | Snow | Wind | Gust | Pres | Sun | Cloud |
|---|---|---|---|---|---|---|---|---|---|---|---|---|
| 2000 | 2000-04-26 | 66.6 | 45.0 | 84.0 | 20 | — | — | 9.5 | — | 29.95 | — | 0 |
| 2001 | 2001-04-26 | 64.4 | 46.9 | 78.1 | 32 | — | — | 13.3 | — | 29.93 | — | 3 |
| 2002 | 2002-04-26 | 53.4 | 44.6 | 64.4 | 41 | — | — | 20.1 | — | 29.68 | — | 2 |
| 2003 | 2003-04-26 | 58.8 | 44.6 | 69.8 | 30 | — | — | 16.0 | — | 29.79 | — | 0 |
| 2004 | 2004-04-26 | 62.4 | 39.2 | 80.6 | 22 | — | — | 8.8 | — | 30.10 | — | 0 |
| 2005 | 2005-04-26 | 51.4 | 36.0 | 63.0 | 63 | 0.0 | — | 8.2 | — | 29.93 | — | 1 |
| 2006 | 2006-04-26 | 57.6 | 39.9 | 71.1 | 26 | 0.0 | — | 19.0 | — | 29.78 | — | — |
| 2007 | 2007-04-26 | 60.4 | 46.0 | 73.9 | 30 | 0.0 | — | 8.0 | — | 29.78 | — | 2 |
| 2008 | 2008-04-26 | 57.7 | 39.0 | 75.0 | 17 | 0.0 | — | 12.8 | — | 29.99 | — | 0 |
| 2009 | 2009-04-26 | 50.9 | 33.1 | 64.0 | 25 | 0.0 | — | 12.0 | — | 29.85 | — | 0 |
| 2010 | 2010-04-26 | 60.6 | 42.1 | 75.9 | 31 | 0.0 | — | 8.9 | — | 29.85 | — | 0 |
| 2011 | 2011-04-26 | 57.4 | 44.1 | 68.0 | 19 | 0.0 | — | 23.9 | — | 29.72 | — | 0 |
| 2012 | 2012-04-26 | 54.7 | 43.0 | 66.0 | 50 | — | — | 18.7 | — | 29.82 | — | 4 |
| 2013 | 2013-04-26 | 58.3 | 39.9 | 75.0 | 34 | 0.0 | — | 10.5 | — | 30.05 | — | 1 |
| 2014 | 2014-04-26 | 46.6 | 37.9 | 57.9 | 57 | — | — | 28.3 | — | 29.62 | — | — |
| 2015 | 2015-04-26 | 47.5 | 39.9 | 57.0 | 62 | — | — | 16.7 | — | 29.75 | — | — |
| 2016 | 2016-04-26 | 48.6 | 34.0 | 62.1 | 47 | 0.0 | — | 11.1 | — | 29.78 | — | — |
| 2017 | 2017-04-26 | 57.2 | 39.9 | 73.0 | 27 | 0.0 | — | 13.0 | — | 29.78 | — | 0 |
| 2018 | 2018-04-26 | 68.5 | 50.0 | 84.0 | 20 | 0.0 | — | 12.4 | — | 29.84 | — | 0 |
| 2019 | 2019-04-26 | 66.7 | 48.9 | 81.0 | 28 | 0.0 | — | 13.4 | — | 29.89 | — | 1 |
| 2020 | 2020-04-26 | 66.6 | 50.0 | 82.0 | 30 | 0.0 | — | 14.5 | — | 29.92 | — | 0 |
| 2021 | 2021-04-26 | 54.0 | 46.0 | 63.0 | 34 | 0.0 | — | 21.7 | — | 29.66 | — | 1 |
| 2022 | 2022-04-26 | 60.3 | 41.0 | 75.9 | 16 | 0.0 | — | 12.8 | — | 29.89 | — | 0 |
| 2023 | 2023-04-26 | 56.8 | 41.0 | 73.0 | 26 | 0.0 | — | 11.3 | — | 29.90 | — | 0 |
| 2024 | 2024-04-26 | 50.4 | 42.1 | 59.0 | 56 | — | — | 18.2 | — | 29.70 | — | 2 |
| 2025 | 2025-04-26 | 56.5 | 43.0 | 64.9 | 20 | 0.0 | — | 21.9 | — | 29.73 | — | 0 |